SL-8 DEB, 12404

Orbit data source: Space-Track

SL-8 DEB, 12404 is space debris in LEO originally from a launch on Mon, 17 Mar 1980 UTC launched from the Plesetsk Missile And Space Complex (PKMTR). Debris objects in space refer to the collection of defunct objects orbiting the Earth. Examples of debris include non-operational satellites, rocket bodies, and fragments generated from explosions, collisions, or faulty payload assembly.

Loading next visibility...
Identifier
12404, 1980-022C
Orbit
LEO
Country
Flag of CISCIS
Related business
Manufacturer
Unknown
Mission
Spacecraft
Bus & Motor
Unknown
Mass
Unknown
Launch date (UTC)
1980-03-17 (46 years ago)
Launch vehicle
Unknown
Launch site
Plesetsk Missile And Space Complex (PKMTR)
Object type
Payload
Rocket body
Debris
Shape & HBR
Unknown shape, 0.1 m
Radar Cross Section
Small (<0.1 m²)

Expand to show TLE details & history
Last TLE update: 10 hours ago

TLE from 10 hours ago
0 SL-8 DEB
1 12404U 80022C   25305.51029257  .00010766  00000-0  23649-2 0  9995
2 12404  82.9085  39.5644 0008628  66.7695 293.4414 14.57450802333944
Epoch: 2025-11-01T12:14Z
TLE epoch observation values (Epoch: 2025-11-01T12:14:49.278Z)
Latitude
-0.00004°
Longitude
174.81973°
Altitude
702.005 km
Speed
7.506 km/s
True Right ascension
02h 38m 15s
True Declination
0° 00' 00"
Sunlit
Object was in full shadow at epoch
Visualization orbit readout
Latitude
Unknown
Longitude
Unknown
Altitude
Unknown
Speed
Unknown
Apparent Right ascension
Unknown
Apparent Declination
Unknown
Sunlit
N/A
Visualization observer readout
Local Sidereal Time
18:03:38
Azimuth
Unknown
Elevation
Unknown
Doppler factor
Unknown
Orbital elements
Apogee altitude
704.56 km
Perigee altitude
692.348 km
Semi-major axis
7,076.591 km
Eccentricity
0.00086
Inclination
82.9085°
RAAN
39.5644°
Arg. of periapsis
66.7695°
True anomaly
293.35065°
Mean anomaly
293.4414°
Eccentric anomaly
293.39603°
Mean motion
3.64592 °/min
Orbital period
98.74 mins
BSTAR
0.0023649
Loading maneuver chart data...
Computing Atmospheric mass density...
Loading historical data...
Loading historical data...
Loading historical data...
Loading historical data...
Loading historical data...
Loading historical data...
Loading historical data...
Other satellites on launch #22 in the year 1980 (1980-03-17 UTC)

Documentation

Showing up to 5 results
|